Time,TemperatureF,DewpointF,PressureIn,WindDirection,WindDirectionDegrees,WindSpeedMPH,WindSpeedGustMPH,Humidity,HourlyPrecipIn,Conditions,Clouds,dailyrainin,SoftwareType,DateUTC
2013-09-22 00:02:00,62.1,55.4,29.83,SSE,163,0.0,5.0,78,0.00,,,0.00,meteohub,2013-09-22 05:02:00,
2013-09-22 00:07:00,62.1,55.2,29.83,SSE,163,0.0,5.0,78,0.00,,,0.00,meteohub,2013-09-22 05:07:00,
2013-09-22 00:12:00,62.1,55.4,29.83,SE,142,0.0,5.0,78,0.00,,,0.00,meteohub,2013-09-22 05:12:00,
2013-09-22 00:17:00,62.1,55.2,29.83,South,182,0.0,4.0,79,0.00,,,0.00,meteohub,2013-09-22 05:17:00,
2013-09-22 00:22:00,61.0,55.0,29.83,South,177,0.0,4.0,79,0.00,,,0.00,meteohub,2013-09-22 05:22:00,
2013-09-22 00:27:00,61.0,54.9,29.83,South,177,0.0,4.0,79,0.00,,,0.00,meteohub,2013-09-22 05:27:00,
2013-09-22 00:32:00,61.0,55.0,29.83,South,176,0.0,3.0,80,0.00,,,0.00,meteohub,2013-09-22 05:32:00,
2013-09-22 00:37:00,61.0,55.0,29.83,South,176,0.0,0.0,80,0.00,,,0.00,meteohub,2013-09-22 05:37:00,
2013-09-22 00:42:00,60.1,54.9,29.83,South,176,0.0,0.0,81,0.00,,,0.00,meteohub,2013-09-22 05:42:00,
2013-09-22 00:47:00,60.1,54.9,29.83,South,176,0.0,0.0,82,0.00,,,0.00,meteohub,2013-09-22 05:47:00,
2013-09-22 00:52:00,60.1,54.9,29.83,South,176,0.0,0.0,82,0.00,,,0.00,meteohub,2013-09-22 05:52:00,
2013-09-22 00:57:00,60.1,54.7,29.83,South,176,0.0,1.0,83,0.00,,,0.00,meteohub,2013-09-22 05:57:00,
2013-09-22 01:02:00,59.0,54.5,29.83,South,176,0.0,3.0,83,0.00,,,0.00,meteohub,2013-09-22 06:02:00,
2013-09-22 01:07:00,59.0,54.5,29.83,South,176,0.0,3.0,84,0.00,,,0.00,meteohub,2013-09-22 06:07:00,
2013-09-22 01:12:00,59.0,54.3,29.83,SSE,167,0.0,3.0,84,0.00,,,0.00,meteohub,2013-09-22 06:12:00,
2013-09-22 01:17:00,59.0,54.5,29.83,SSE,153,0.0,4.0,84,0.00,,,0.00,meteohub,2013-09-22 06:17:00,
2013-09-22 01:22:00,59.0,54.3,29.82,SE,143,0.0,6.0,84,0.00,,,0.00,meteohub,2013-09-22 06:22:00,
2013-09-22 01:28:00,59.0,54.5,29.83,SSE,156,0.0,6.0,84,0.00,,,0.00,meteohub,2013-09-22 06:28:00,
2013-09-22 01:33:00,59.0,54.5,29.83,SSE,164,0.0,6.0,84,0.00,,,0.00,meteohub,2013-09-22 06:33:00,
2013-09-22 01:38:00,59.0,54.3,29.83,SSE,164,0.0,6.0,85,0.00,,,0.00,meteohub,2013-09-22 06:38:00,
2013-09-22 01:43:00,59.0,54.1,29.83,SSE,167,0.0,6.0,85,0.00,,,0.00,meteohub,2013-09-22 06:43:00,
2013-09-22 01:48:00,57.9,54.5,29.83,SSE,168,0.0,3.0,85,0.00,,,0.00,meteohub,2013-09-22 06:48:00,
2013-09-22 01:53:00,57.9,54.5,29.83,SSE,167,3.0,3.0,86,0.00,,,0.00,meteohub,2013-09-22 06:53:00,
2013-09-22 01:58:00,57.9,54.5,29.83,South,190,2.0,5.0,86,0.00,,,0.00,meteohub,2013-09-22 06:58:00,
2013-09-22 02:03:00,57.9,54.0,29.83,South,190,0.0,5.0,86,0.00,,,0.00,meteohub,2013-09-22 07:03:00,
2013-09-22 02:08:00,57.9,54.3,29.83,South,190,0.0,5.0,86,0.00,,,0.00,meteohub,2013-09-22 07:08:00,
2013-09-22 02:13:00,57.9,54.1,29.83,South,190,0.0,5.0,86,0.00,,,0.00,meteohub,2013-09-22 07:13:00,
2013-09-22 02:18:00,57.9,54.0,29.83,South,190,0.0,0.0,86,0.00,,,0.00,meteohub,2013-09-22 07:18:00,
2013-09-22 02:23:00,57.9,54.3,29.83,South,190,0.0,0.0,86,0.00,,,0.00,meteohub,2013-09-22 07:23:00,
2013-09-22 02:28:00,57.9,54.1,29.83,South,190,0.0,0.0,86,0.00,,,0.00,meteohub,2013-09-22 07:28:00,
2013-09-22 02:33:00,57.9,54.1,29.83,South,190,0.0,0.0,86,0.00,,,0.00,meteohub,2013-09-22 07:33:00,
2013-09-22 02:39:00,57.9,54.0,29.83,South,190,0.0,0.0,86,0.00,,,0.00,meteohub,2013-09-22 07:39:00,
2013-09-22 02:44:00,57.9,54.0,29.82,South,190,0.0,1.0,86,0.00,,,0.00,meteohub,2013-09-22 07:44:00,
2013-09-22 02:49:00,57.0,53.8,29.82,South,190,0.0,1.0,86,0.00,,,0.00,meteohub,2013-09-22 07:49:00,
2013-09-22 02:54:00,57.0,53.8,29.82,South,190,0.0,1.0,87,0.00,,,0.00,meteohub,2013-09-22 07:54:00,
2013-09-22 02:59:00,57.0,54.0,29.83,South,190,0.0,0.0,87,0.00,,,0.00,meteohub,2013-09-22 07:59:00,
2013-09-22 03:04:00,57.0,54.0,29.83,South,190,0.0,0.0,87,0.00,,,0.00,meteohub,2013-09-22 08:04:00,
2013-09-22 03:09:00,57.0,53.8,29.83,South,190,0.0,0.0,87,0.00,,,0.00,meteohub,2013-09-22 08:09:00,
2013-09-22 03:14:00,55.9,53.8,29.83,South,190,0.0,0.0,88,0.00,,,0.00,meteohub,2013-09-22 08:14:00,
2013-09-22 03:19:00,55.9,53.6,29.83,South,190,0.0,0.0,89,0.00,,,0.00,meteohub,2013-09-22 08:19:00,
2013-09-22 03:24:00,55.9,53.8,29.82,South,190,0.0,0.0,89,0.00,,,0.00,meteohub,2013-09-22 08:24:00,
2013-09-22 03:29:00,55.9,53.4,29.83,South,190,0.0,0.0,90,0.00,,,0.00,meteohub,2013-09-22 08:29:00,
2013-09-22 03:34:00,55.9,53.4,29.83,South,190,0.0,0.0,90,0.00,,,0.00,meteohub,2013-09-22 08:34:00,
2013-09-22 03:39:00,55.9,53.8,29.83,South,190,0.0,0.0,90,0.00,,,0.00,meteohub,2013-09-22 08:39:00,
2013-09-22 03:44:00,55.9,53.8,29.82,South,190,0.0,0.0,90,0.00,,,0.00,meteohub,2013-09-22 08:44:00,
2013-09-22 03:49:00,55.9,53.2,29.83,South,190,0.0,0.0,90,0.00,,,0.00,meteohub,2013-09-22 08:49:00,
2013-09-22 03:54:00,55.9,53.2,29.83,South,190,0.0,0.0,90,0.00,,,0.00,meteohub,2013-09-22 08:54:00,
2013-09-22 03:59:00,55.9,53.4,29.82,South,190,0.0,0.0,90,0.00,,,0.00,meteohub,2013-09-22 08:59:00,
2013-09-22 04:04:00,55.9,53.2,29.82,South,190,0.0,0.0,92,0.00,,,0.00,meteohub,2013-09-22 09:04:00,
2013-09-22 04:10:00,55.9,53.1,29.82,South,190,0.0,0.0,90,0.00,,,0.00,meteohub,2013-09-22 09:10:00,
2013-09-22 04:15:00,55.9,52.9,29.82,South,190,0.0,0.0,90,0.00,,,0.00,meteohub,2013-09-22 09:15:00,
2013-09-22 04:20:00,55.0,52.9,29.82,South,190,0.0,0.0,89,0.00,,,0.00,meteohub,2013-09-22 09:20:00,
2013-09-22 04:25:00,55.0,53.2,29.82,South,190,0.0,0.0,91,0.00,,,0.00,meteohub,2013-09-22 09:25:00,
2013-09-22 04:30:00,55.0,53.2,29.82,South,190,0.0,0.0,91,0.00,,,0.00,meteohub,2013-09-22 09:30:00,
2013-09-22 04:35:00,55.9,53.8,29.82,South,190,0.0,1.0,91,0.00,,,0.00,meteohub,2013-09-22 09:35:00,
2013-09-22 04:40:00,55.9,54.0,29.82,South,190,0.0,3.0,91,0.00,,,0.00,meteohub,2013-09-22 09:40:00,
2013-09-22 04:45:00,55.9,54.0,29.82,SSE,156,1.0,1.0,90,0.00,,,0.00,meteohub,2013-09-22 09:45:00,
2013-09-22 04:50:00,55.9,53.8,29.82,SSE,161,0.0,1.0,90,0.00,,,0.00,meteohub,2013-09-22 09:50:00,
2013-09-22 04:55:00,55.9,53.6,29.82,SSE,162,0.0,4.0,90,0.00,,,0.00,meteohub,2013-09-22 09:55:00,
2013-09-22 05:00:00,55.9,53.8,29.82,SE,140,0.0,4.0,90,0.00,,,0.00,meteohub,2013-09-22 10:00:00,
2013-09-22 05:05:00,55.9,53.8,29.83,SE,144,0.0,3.0,89,0.00,,,0.00,meteohub,2013-09-22 10:05:00,
2013-09-22 05:10:00,55.9,53.6,29.83,SSE,148,0.0,0.0,89,0.00,,,0.00,meteohub,2013-09-22 10:10:00,
2013-09-22 05:15:00,55.9,53.6,29.83,SSE,148,0.0,0.0,89,0.00,,,0.00,meteohub,2013-09-22 10:15:00,
2013-09-22 05:21:00,55.9,53.4,29.83,SSE,148,0.0,0.0,89,0.00,,,0.00,meteohub,2013-09-22 10:21:00,
2013-09-22 05:26:00,55.9,53.4,29.83,SSE,159,0.0,2.0,89,0.00,,,0.00,meteohub,2013-09-22 10:26:00,
2013-09-22 05:31:00,55.9,53.2,29.83,SSE,159,0.0,2.0,90,0.00,,,0.00,meteohub,2013-09-22 10:31:00,
2013-09-22 05:36:00,55.9,53.6,29.83,SSE,165,0.0,2.0,90,0.00,,,0.00,meteohub,2013-09-22 10:36:00,
2013-09-22 05:41:00,55.9,53.6,29.83,SSE,165,0.0,2.0,90,0.00,,,0.00,meteohub,2013-09-22 10:41:00,
2013-09-22 05:46:00,55.9,53.6,29.83,SSE,165,0.0,2.0,90,0.00,,,0.00,meteohub,2013-09-22 10:46:00,
2013-09-22 05:51:00,55.9,53.6,29.83,SSE,165,0.0,0.0,90,0.00,,,0.00,meteohub,2013-09-22 10:51:00,
2013-09-22 05:56:00,55.9,53.6,29.83,SE,144,0.0,0.0,90,0.00,,,0.00,meteohub,2013-09-22 10:56:00,
2013-09-22 06:01:00,55.9,53.6,29.83,SE,139,0.0,2.0,90,0.00,,,0.00,meteohub,2013-09-22 11:01:00,
2013-09-22 06:06:00,55.9,53.6,29.83,SE,145,0.0,2.0,90,0.00,,,0.00,meteohub,2013-09-22 11:06:00,
2013-09-22 06:11:00,55.9,53.4,29.83,SE,146,0.0,3.0,90,0.00,,,0.00,meteohub,2013-09-22 11:11:00,
2013-09-22 06:16:00,55.9,53.4,29.83,SE,146,0.0,3.0,90,0.00,,,0.00,meteohub,2013-09-22 11:16:00,
2013-09-22 06:21:00,55.9,53.2,29.83,SSE,152,0.0,2.0,90,0.00,,,0.00,meteohub,2013-09-22 11:21:00,
2013-09-22 06:26:00,55.9,53.2,29.83,SSE,152,0.0,2.0,90,0.00,,,0.00,meteohub,2013-09-22 11:26:00,
2013-09-22 06:31:00,55.0,53.2,29.84,SSE,152,0.0,2.0,90,0.00,,,0.00,meteohub,2013-09-22 11:31:00,
2013-09-22 06:36:00,55.0,53.2,29.84,SSE,152,0.0,1.0,91,0.00,,,0.00,meteohub,2013-09-22 11:36:00,
2013-09-22 06:41:00,55.0,53.2,29.84,SSE,152,0.0,1.0,91,0.00,,,0.00,meteohub,2013-09-22 11:41:00,
2013-09-22 06:47:00,55.0,53.1,29.84,SE,139,0.0,1.0,91,0.00,,,0.00,meteohub,2013-09-22 11:47:00,
2013-09-22 06:52:00,55.0,53.1,29.84,SE,139,0.0,1.0,91,0.00,,,0.00,meteohub,2013-09-22 11:52:00,
2013-09-22 06:57:00,55.0,52.9,29.84,SE,134,0.0,2.0,91,0.00,,,0.00,meteohub,2013-09-22 11:57:00,
2013-09-22 07:02:00,55.0,53.2,29.84,SE,132,0.0,2.0,91,0.00,,,0.00,meteohub,2013-09-22 12:02:00,
2013-09-22 07:07:00,55.0,53.2,29.84,SE,132,0.0,2.0,91,0.00,,,0.00,meteohub,2013-09-22 12:07:00,
2013-09-22 07:12:00,55.0,53.1,29.84,SE,133,0.0,2.0,91,0.00,,,0.00,meteohub,2013-09-22 12:12:00,
2013-09-22 07:17:00,55.0,53.2,29.83,SE,134,0.0,0.0,91,0.00,,,0.00,meteohub,2013-09-22 12:17:00,
2013-09-22 07:22:00,55.0,53.2,29.84,SE,146,0.0,2.0,91,0.00,,,0.00,meteohub,2013-09-22 12:22:00,
2013-09-22 07:27:00,55.0,53.2,29.84,ESE,123,0.0,2.0,91,0.00,,,0.00,meteohub,2013-09-22 12:27:00,
2013-09-22 07:32:00,55.0,53.2,29.84,SE,128,0.0,2.0,91,0.00,,,0.00,meteohub,2013-09-22 12:32:00,
2013-09-22 07:37:00,55.0,53.2,29.84,SE,140,0.0,2.0,91,0.00,,,0.00,meteohub,2013-09-22 12:37:00,
2013-09-22 07:42:00,55.0,53.2,29.84,SE,143,0.0,2.0,91,0.00,,,0.00,meteohub,2013-09-22 12:42:00,
2013-09-22 07:47:00,55.0,53.2,29.84,SSE,150,0.0,2.0,91,0.00,,,0.00,meteohub,2013-09-22 12:47:00,
2013-09-22 07:52:00,55.0,53.4,29.84,SSE,153,0.0,2.0,91,0.00,,,0.00,meteohub,2013-09-22 12:52:00,
2013-09-22 07:57:00,55.0,53.4,29.84,SSE,160,1.0,0.0,91,0.00,,,0.00,meteohub,2013-09-22 12:57:00,
2013-09-22 08:02:00,55.9,53.6,29.84,SSE,149,0.0,4.0,91,0.00,,,0.00,meteohub,2013-09-22 13:02:00,
2013-09-22 08:07:00,55.9,53.6,29.85,South,180,0.0,4.0,90,0.00,,,0.00,meteohub,2013-09-22 13:07:00,
2013-09-22 08:12:00,55.9,53.6,29.84,South,180,0.0,4.0,90,0.00,,,0.00,meteohub,2013-09-22 13:12:00,
2013-09-22 08:17:00,55.9,54.0,29.84,South,185,0.0,4.0,90,0.00,,,0.00,meteohub,2013-09-22 13:17:00,
2013-09-22 08:22:00,55.9,54.1,29.85,South,187,1.0,5.0,89,0.00,,,0.00,meteohub,2013-09-22 13:22:00,
2013-09-22 08:27:00,57.0,54.1,29.85,South,187,0.0,6.0,89,0.00,,,0.00,meteohub,2013-09-22 13:27:00,
2013-09-22 08:32:00,57.0,54.0,29.85,South,187,0.0,6.0,89,0.00,,,0.00,meteohub,2013-09-22 13:32:00,
2013-09-22 08:37:00,57.0,54.7,29.85,South,187,0.0,3.0,89,0.00,,,0.00,meteohub,2013-09-22 13:37:00,
2013-09-22 08:42:00,57.9,54.9,29.85,South,169,0.0,3.0,89,0.00,,,0.00,meteohub,2013-09-22 13:42:00,
2013-09-22 08:47:00,57.9,55.6,29.85,SE,137,0.0,3.0,88,0.00,,,0.00,meteohub,2013-09-22 13:47:00,
2013-09-22 08:52:00,59.0,55.8,29.85,South,173,0.0,3.0,88,0.00,,,0.00,meteohub,2013-09-22 13:52:00,
2013-09-22 08:57:00,60.1,55.9,29.85,South,173,0.0,3.0,87,0.00,,,0.00,meteohub,2013-09-22 13:57:00,
2013-09-22 09:02:00,60.1,56.5,29.85,SSW,193,3.0,3.0,86,0.00,,,0.00,meteohub,2013-09-22 14:02:00,
2013-09-22 09:07:00,61.0,56.7,29.85,SSW,193,4.0,6.0,84,0.00,,,0.00,meteohub,2013-09-22 14:07:00,
2013-09-22 09:12:00,62.1,56.7,29.85,South,186,0.0,6.0,83,0.00,,,0.00,meteohub,2013-09-22 14:12:00,
2013-09-22 09:17:00,62.1,56.8,29.85,SSW,208,6.0,6.0,81,0.00,,,0.00,meteohub,2013-09-22 14:17:00,
2013-09-22 09:22:00,63.0,57.2,29.85,SSE,161,3.0,8.0,80,0.00,,,0.00,meteohub,2013-09-22 14:22:00,
2013-09-22 09:27:00,64.0,57.2,29.85,SSW,196,0.0,10.0,77,0.00,,,0.00,meteohub,2013-09-22 14:27:00,
2013-09-22 09:32:00,64.9,56.8,29.85,SSW,198,4.0,10.0,74,0.00,,,0.00,meteohub,2013-09-22 14:32:00,
2013-09-22 09:37:00,64.9,56.5,29.85,SSW,203,6.0,10.0,72,0.00,,,0.00,meteohub,2013-09-22 14:37:00,
2013-09-22 09:42:00,66.0,56.3,29.85,SSW,198,5.0,10.0,73,0.00,,,0.00,meteohub,2013-09-22 14:42:00,
2013-09-22 09:47:00,66.9,56.3,29.85,SSW,198,6.0,11.0,70,0.00,,,0.00,meteohub,2013-09-22 14:47:00,
2013-09-22 09:52:00,66.9,56.1,29.85,SSW,209,9.0,11.0,69,0.00,,,0.00,meteohub,2013-09-22 14:52:00,
2013-09-22 09:57:00,68.0,56.7,29.85,SSE,156,6.0,11.0,66,0.00,,,0.00,meteohub,2013-09-22 14:57:00,
2013-09-22 10:02:00,69.1,56.5,29.85,South,186,6.0,11.0,65,0.00,,,0.00,meteohub,2013-09-22 15:02:00,
2013-09-22 10:07:00,69.1,55.9,29.85,SSW,212,8.0,11.0,65,0.00,,,0.00,meteohub,2013-09-22 15:07:00,
2013-09-22 10:12:00,70.0,55.6,29.85,SW,215,5.0,12.0,63,0.00,,,0.00,meteohub,2013-09-22 15:12:00,
2013-09-22 10:17:00,70.0,55.0,29.85,South,186,8.0,14.0,60,0.00,,,0.00,meteohub,2013-09-22 15:17:00,
2013-09-22 10:22:00,71.1,54.5,29.85,SW,219,9.0,14.0,57,0.00,,,0.00,meteohub,2013-09-22 15:22:00,
2013-09-22 10:27:00,71.1,54.3,29.85,SSW,212,7.0,18.0,58,0.00,,,0.00,meteohub,2013-09-22 15:27:00,
2013-09-22 10:32:00,72.0,55.4,29.85,SW,214,10.0,18.0,56,0.00,,,0.00,meteohub,2013-09-22 15:32:00,
2013-09-22 10:37:00,72.0,54.7,29.85,SSW,208,7.0,18.0,56,0.00,,,0.00,meteohub,2013-09-22 15:37:00,
2013-09-22 10:43:00,72.0,55.2,29.85,South,185,11.0,18.0,54,0.00,,,0.00,meteohub,2013-09-22 15:43:00,
2013-09-22 10:48:00,73.0,54.3,29.84,SSW,207,8.0,18.0,54,0.00,,,0.00,meteohub,2013-09-22 15:48:00,
2013-09-22 10:53:00,73.0,53.8,29.85,North,0,13.0,18.0,52,0.00,,,0.00,meteohub,2013-09-22 15:53:00,
2013-09-22 10:58:00,73.0,54.5,29.84,SSW,198,12.0,20.0,53,0.00,,,0.00,meteohub,2013-09-22 15:58:00,
2013-09-22 11:03:00,73.9,54.1,29.84,SSW,205,8.0,20.0,54,0.00,,,0.00,meteohub,2013-09-22 16:03:00,
2013-09-22 11:08:00,73.9,55.4,29.84,South,189,8.0,20.0,53,0.00,,,0.00,meteohub,2013-09-22 16:08:00,
2013-09-22 11:13:00,75.0,55.8,29.84,South,175,6.0,19.0,53,0.00,,,0.00,meteohub,2013-09-22 16:13:00,
2013-09-22 11:18:00,75.0,54.0,29.84,South,181,5.0,17.0,50,0.00,,,0.00,meteohub,2013-09-22 16:18:00,
2013-09-22 11:23:00,75.0,55.4,29.84,SW,227,7.0,16.0,51,0.00,,,0.00,meteohub,2013-09-22 16:23:00,
2013-09-22 11:28:00,75.0,55.0,29.83,SSE,167,10.0,16.0,50,0.00,,,0.00,meteohub,2013-09-22 16:28:00,
2013-09-22 11:33:00,75.0,53.4,29.83,South,186,9.0,16.0,48,0.00,,,0.00,meteohub,2013-09-22 16:33:00,
2013-09-22 11:38:00,75.0,54.0,29.83,SSW,208,11.0,18.0,48,0.00,,,0.00,meteohub,2013-09-22 16:38:00,
2013-09-22 11:43:00,75.9,52.9,29.83,SSW,212,7.0,18.0,47,0.00,,,0.00,meteohub,2013-09-22 16:43:00,
2013-09-22 11:48:00,75.9,53.8,29.83,SSW,206,9.0,19.0,50,0.00,,,0.00,meteohub,2013-09-22 16:48:00,
2013-09-22 11:54:00,75.9,54.1,29.83,SW,215,12.0,19.0,50,0.00,,,0.00,meteohub,2013-09-22 16:54:00,
2013-09-22 11:59:00,75.9,53.1,29.83,SW,224,10.0,19.0,46,0.00,,,0.00,meteohub,2013-09-22 16:59:00,
2013-09-22 12:04:00,75.9,53.1,29.83,SSW,207,13.0,19.0,46,0.00,,,0.00,meteohub,2013-09-22 17:04:00,
2013-09-22 12:10:00,77.0,52.9,29.83,SSW,201,7.0,19.0,47,0.00,,,0.00,meteohub,2013-09-22 17:10:00,
2013-09-22 12:15:00,77.0,54.0,29.83,SSE,162,6.0,21.0,46,0.00,,,0.00,meteohub,2013-09-22 17:15:00,
2013-09-22 12:20:00,77.0,53.1,29.82,SSW,192,5.0,21.0,45,0.00,,,0.00,meteohub,2013-09-22 17:20:00,
2013-09-22 12:25:00,77.0,53.2,29.82,SSW,193,3.0,17.0,44,0.00,,,0.00,meteohub,2013-09-22 17:25:00,
2013-09-22 12:30:00,77.0,52.7,29.82,South,178,10.0,17.0,44,0.00,,,0.00,meteohub,2013-09-22 17:30:00,
2013-09-22 12:35:00,77.0,53.4,29.81,SSW,207,14.0,18.0,45,0.00,,,0.00,meteohub,2013-09-22 17:35:00,
2013-09-22 12:40:00,77.0,53.2,29.82,SSE,159,15.0,18.0,44,0.00,,,0.00,meteohub,2013-09-22 17:40:00,
2013-09-22 12:45:00,77.0,53.4,29.81,South,183,7.0,23.0,44,0.00,,,0.00,meteohub,2013-09-22 17:45:00,
2013-09-22 12:50:00,77.0,53.2,29.81,SSW,201,7.0,23.0,44,0.00,,,0.00,meteohub,2013-09-22 17:50:00,
2013-09-22 12:55:00,78.1,53.6,29.81,South,173,9.0,20.0,45,0.00,,,0.00,meteohub,2013-09-22 17:55:00,
2013-09-22 13:00:00,78.1,53.8,29.81,SSW,192,5.0,20.0,45,0.00,,,0.00,meteohub,2013-09-22 18:00:00,
2013-09-22 13:05:00,78.1,54.9,29.81,South,182,9.0,20.0,45,0.00,,,0.00,meteohub,2013-09-22 18:05:00,
2013-09-22 13:11:00,78.1,54.1,29.81,SSW,213,15.0,21.0,45,0.00,,,0.00,meteohub,2013-09-22 18:11:00,
2013-09-22 13:16:00,78.1,53.1,29.80,SSE,161,16.0,21.0,44,0.00,,,0.00,meteohub,2013-09-22 18:16:00,
2013-09-22 13:21:00,78.1,52.9,29.80,SE,132,8.0,21.0,43,0.00,,,0.00,meteohub,2013-09-22 18:21:00,
2013-09-22 13:26:00,79.0,53.6,29.80,South,190,12.0,19.0,44,0.00,,,0.00,meteohub,2013-09-22 18:26:00,
2013-09-22 13:31:00,79.0,53.8,29.79,SSE,148,4.0,18.0,43,0.00,,,0.00,meteohub,2013-09-22 18:31:00,
2013-09-22 13:36:00,79.0,54.5,29.79,SSW,196,4.0,24.0,43,0.00,,,0.00,meteohub,2013-09-22 18:36:00,
2013-09-22 13:41:00,79.0,53.2,29.79,SSW,194,12.0,24.0,46,0.00,,,0.00,meteohub,2013-09-22 18:41:00,
2013-09-22 13:46:00,79.0,53.1,29.79,SSW,196,9.0,24.0,45,0.00,,,0.00,meteohub,2013-09-22 18:46:00,
2013-09-22 13:51:00,79.0,52.3,29.79,South,190,18.0,23.0,44,0.00,,,0.00,meteohub,2013-09-22 18:51:00,
2013-09-22 13:56:00,79.0,54.0,29.78,South,177,10.0,23.0,42,0.00,,,0.00,meteohub,2013-09-22 18:56:00,
2013-09-22 14:01:00,79.0,54.7,29.78,South,190,9.0,22.0,44,0.00,,,0.00,meteohub,2013-09-22 19:01:00,
2013-09-22 14:07:00,79.0,54.3,29.78,SSE,162,3.0,21.0,43,0.00,,,0.00,meteohub,2013-09-22 19:07:00,
2013-09-22 14:12:00,80.1,54.0,29.78,SSE,159,8.0,17.0,42,0.00,,,0.00,meteohub,2013-09-22 19:12:00,
2013-09-22 14:17:00,79.0,54.0,29.77,South,184,2.0,20.0,40,0.00,,,0.00,meteohub,2013-09-22 19:17:00,
2013-09-22 14:22:00,80.1,51.8,29.77,South,186,8.0,20.0,41,0.00,,,0.00,meteohub,2013-09-22 19:22:00,
2013-09-22 14:27:00,80.1,52.3,29.77,SSE,156,17.0,20.0,41,0.00,,,0.00,meteohub,2013-09-22 19:27:00,
2013-09-22 14:32:00,80.1,52.5,29.77,SSE,157,8.0,18.0,40,0.00,,,0.00,meteohub,2013-09-22 19:32:00,
2013-09-22 14:37:00,80.1,52.0,29.77,SSW,206,13.0,18.0,39,0.00,,,0.00,meteohub,2013-09-22 19:37:00,
2013-09-22 14:42:00,80.1,53.6,29.76,SSW,196,11.0,19.0,40,0.00,,,0.00,meteohub,2013-09-22 19:42:00,
2013-09-22 14:47:00,80.1,52.9,29.76,South,190,13.0,19.0,40,0.00,,,0.00,meteohub,2013-09-22 19:47:00,
2013-09-22 14:52:00,80.1,52.2,29.76,SSW,198,8.0,20.0,40,0.00,,,0.00,meteohub,2013-09-22 19:52:00,
2013-09-22 14:57:00,80.1,54.3,29.76,SSE,165,7.0,20.0,40,0.00,,,0.00,meteohub,2013-09-22 19:57:00,
2013-09-22 15:02:00,80.1,52.3,29.76,SSE,165,4.0,20.0,40,0.00,,,0.00,meteohub,2013-09-22 20:02:00,
2013-09-22 15:07:00,80.1,53.6,29.75,SSE,163,9.0,15.0,40,0.00,,,0.00,meteohub,2013-09-22 20:07:00,
2013-09-22 15:12:00,80.1,53.6,29.75,South,186,6.0,17.0,39,0.00,,,0.00,meteohub,2013-09-22 20:12:00,
2013-09-22 15:17:00,80.1,52.9,29.75,SE,146,2.0,17.0,40,0.00,,,0.00,meteohub,2013-09-22 20:17:00,
2013-09-22 15:22:00,80.1,53.6,29.75,SSE,167,12.0,17.0,39,0.00,,,0.00,meteohub,2013-09-22 20:22:00,
2013-09-22 15:27:00,80.1,52.2,29.75,SSE,161,8.0,17.0,40,0.00,,,0.00,meteohub,2013-09-22 20:27:00,
2013-09-22 15:32:00,80.1,52.9,29.75,SSE,147,9.0,17.0,41,0.00,,,0.00,meteohub,2013-09-22 20:32:00,
2013-09-22 15:37:00,80.1,52.9,29.74,SSW,201,12.0,17.0,39,0.00,,,0.00,meteohub,2013-09-22 20:37:00,
2013-09-22 15:42:00,80.1,53.2,29.74,South,171,3.0,18.0,41,0.00,,,0.00,meteohub,2013-09-22 20:42:00,
2013-09-22 15:47:00,80.1,53.1,29.74,SSE,151,7.0,19.0,41,0.00,,,0.00,meteohub,2013-09-22 20:47:00,
2013-09-22 15:52:00,81.0,54.5,29.74,South,180,8.0,19.0,43,0.00,,,0.00,meteohub,2013-09-22 20:52:00,
2013-09-22 15:57:00,81.0,53.2,29.74,SE,136,5.0,19.0,40,0.00,,,0.00,meteohub,2013-09-22 20:57:00,
2013-09-22 16:02:00,80.1,54.0,29.73,SSE,149,5.0,15.0,41,0.00,,,0.00,meteohub,2013-09-22 21:02:00,
2013-09-22 16:07:00,80.1,54.0,29.73,South,176,5.0,15.0,42,0.00,,,0.00,meteohub,2013-09-22 21:07:00,
2013-09-22 16:12:00,80.1,55.0,29.73,SSW,209,15.0,18.0,41,0.00,,,0.00,meteohub,2013-09-22 21:12:00,
2013-09-22 16:17:00,80.1,55.0,29.73,SSW,198,7.0,18.0,42,0.00,,,0.00,meteohub,2013-09-22 21:17:00,
2013-09-22 16:22:00,80.1,53.4,29.73,South,175,9.0,18.0,41,0.00,,,0.00,meteohub,2013-09-22 21:22:00,
2013-09-22 16:27:00,80.1,54.0,29.73,South,180,1.0,18.0,42,0.00,,,0.00,meteohub,2013-09-22 21:27:00,
2013-09-22 16:32:00,80.1,53.8,29.73,SSE,167,6.0,18.0,41,0.00,,,0.00,meteohub,2013-09-22 21:32:00,
2013-09-22 16:37:00,80.1,53.6,29.72,SSE,154,3.0,14.0,41,0.00,,,0.00,meteohub,2013-09-22 21:37:00,
2013-09-22 16:42:00,80.1,53.6,29.72,SSW,194,8.0,14.0,39,0.00,,,0.00,meteohub,2013-09-22 21:42:00,
2013-09-22 16:47:00,80.1,52.2,29.72,South,171,8.0,16.0,39,0.00,,,0.00,meteohub,2013-09-22 21:47:00,
2013-09-22 16:52:00,80.1,52.3,29.72,SE,139,4.0,16.0,40,0.00,,,0.00,meteohub,2013-09-22 21:52:00,
2013-09-22 16:57:00,80.1,52.2,29.72,SSW,193,6.0,16.0,40,0.00,,,0.00,meteohub,2013-09-22 21:57:00,
2013-09-22 17:02:00,80.1,52.7,29.72,South,175,3.0,14.0,41,0.00,,,0.00,meteohub,2013-09-22 22:02:00,
2013-09-22 17:07:00,80.1,53.2,29.72,SSE,165,8.0,14.0,40,0.00,,,0.00,meteohub,2013-09-22 22:07:00,
2013-09-22 17:12:00,79.0,52.2,29.72,ESE,119,5.0,14.0,40,0.00,,,0.00,meteohub,2013-09-22 22:12:00,
2013-09-22 17:17:00,79.0,52.7,29.71,South,178,9.0,13.0,41,0.00,,,0.00,meteohub,2013-09-22 22:17:00,
2013-09-22 17:22:00,79.0,52.0,29.71,SSE,152,1.0,13.0,40,0.00,,,0.00,meteohub,2013-09-22 22:22:00,
2013-09-22 17:27:00,79.0,52.0,29.71,SSE,160,15.0,17.0,41,0.00,,,0.00,meteohub,2013-09-22 22:27:00,
2013-09-22 17:32:00,78.1,52.3,29.72,SE,135,5.0,20.0,41,0.00,,,0.00,meteohub,2013-09-22 22:32:00,
2013-09-22 17:38:00,78.1,51.4,29.71,SSE,151,4.0,20.0,40,0.00,,,0.00,meteohub,2013-09-22 22:38:00,
2013-09-22 17:43:00,78.1,51.4,29.71,SSE,157,4.0,20.0,40,0.00,,,0.00,meteohub,2013-09-22 22:43:00,
2013-09-22 17:48:00,78.1,51.4,29.71,ESE,109,4.0,17.0,41,0.00,,,0.00,meteohub,2013-09-22 22:48:00,
2013-09-22 17:54:00,77.0,51.3,29.71,South,171,6.0,17.0,40,0.00,,,0.00,meteohub,2013-09-22 22:54:00,
2013-09-22 17:59:00,77.0,51.3,29.71,South,184,0.0,15.0,43,0.00,,,0.00,meteohub,2013-09-22 22:59:00,
2013-09-22 18:05:00,77.0,51.6,29.71,SSE,164,6.0,14.0,42,0.00,,,0.00,meteohub,2013-09-22 23:05:00,
2013-09-22 18:10:00,77.0,51.4,29.70,South,175,6.0,14.0,42,0.00,,,0.00,meteohub,2013-09-22 23:10:00,
2013-09-22 18:15:00,75.9,51.8,29.71,ESE,119,3.0,14.0,43,0.00,,,0.00,meteohub,2013-09-22 23:15:00,
2013-09-22 18:20:00,75.9,51.3,29.70,ESE,115,3.0,15.0,44,0.00,,,0.00,meteohub,2013-09-22 23:20:00,
2013-09-22 18:25:00,75.9,51.8,29.71,SSE,163,3.0,15.0,43,0.00,,,0.00,meteohub,2013-09-22 23:25:00,
2013-09-22 18:30:00,75.9,51.6,29.71,South,172,7.0,12.0,43,0.00,,,0.00,meteohub,2013-09-22 23:30:00,
2013-09-22 18:35:00,75.0,51.8,29.71,SSE,157,3.0,15.0,44,0.00,,,0.00,meteohub,2013-09-22 23:35:00,
2013-09-22 18:40:00,75.0,51.6,29.70,SE,136,6.0,15.0,45,0.00,,,0.00,meteohub,2013-09-22 23:40:00,
2013-09-22 18:45:00,75.0,52.0,29.70,SE,125,2.0,14.0,45,0.00,,,0.00,meteohub,2013-09-22 23:45:00,
2013-09-22 18:50:00,73.9,51.6,29.70,SE,144,4.0,13.0,45,0.00,,,0.00,meteohub,2013-09-22 23:50:00,
2013-09-22 18:56:00,73.9,52.2,29.70,ESE,119,0.0,13.0,46,0.00,,,0.00,meteohub,2013-09-22 23:56:00,
2013-09-22 19:01:00,73.9,52.2,29.71,SE,126,0.0,11.0,47,0.00,,,0.00,meteohub,2013-09-23 00:01:00,
2013-09-22 19:06:00,73.9,52.0,29.71,South,169,2.0,11.0,47,0.00,,,0.00,meteohub,2013-09-23 00:06:00,
2013-09-22 19:11:00,73.0,52.2,29.71,SE,127,3.0,15.0,48,0.00,,,0.00,meteohub,2013-09-23 00:11:00,
2013-09-22 19:16:00,73.0,51.8,29.71,ESE,119,4.0,15.0,48,0.00,,,0.00,meteohub,2013-09-23 00:16:00,
2013-09-22 19:21:00,73.0,52.3,29.71,South,173,2.0,15.0,49,0.00,,,0.00,meteohub,2013-09-23 00:21:00,
2013-09-22 19:26:00,72.0,52.0,29.71,SE,131,0.0,10.0,49,0.00,,,0.00,meteohub,2013-09-23 00:26:00,
2013-09-22 19:31:00,72.0,51.4,29.71,SE,140,3.0,9.0,50,0.00,,,0.00,meteohub,2013-09-23 00:31:00,
2013-09-22 19:36:00,72.0,52.0,29.71,SE,136,0.0,11.0,50,0.00,,,0.00,meteohub,2013-09-23 00:36:00,
2013-09-22 19:41:00,71.1,52.2,29.71,SE,138,2.0,11.0,51,0.00,,,0.00,meteohub,2013-09-23 00:41:00,
2013-09-22 19:47:00,71.1,51.8,29.71,SE,134,4.0,8.0,51,0.00,,,0.00,meteohub,2013-09-23 00:47:00,
2013-09-22 19:52:00,71.1,51.6,29.71,SE,142,0.0,8.0,51,0.00,,,0.00,meteohub,2013-09-23 00:52:00,
2013-09-22 19:57:00,71.1,52.0,29.72,SE,138,3.0,8.0,52,0.00,,,0.00,meteohub,2013-09-23 00:57:00,
2013-09-22 20:02:00,70.0,52.2,29.72,ESE,119,0.0,8.0,53,0.00,,,0.00,meteohub,2013-09-23 01:02:00,
2013-09-22 20:07:00,70.0,52.2,29.72,ESE,111,2.0,7.0,54,0.00,,,0.00,meteohub,2013-09-23 01:07:00,
2013-09-22 20:13:00,69.1,52.3,29.72,ESE,108,0.0,6.0,56,0.00,,,0.00,meteohub,2013-09-23 01:13:00,
2013-09-22 20:18:00,69.1,53.1,29.72,ESE,107,2.0,6.0,58,0.00,,,0.00,meteohub,2013-09-23 01:18:00,
2013-09-22 20:23:00,68.0,53.2,29.72,ESE,102,2.0,7.0,59,0.00,,,0.00,meteohub,2013-09-23 01:23:00,
2013-09-22 20:28:00,68.0,53.1,29.73,East,101,0.0,7.0,60,0.00,,,0.00,meteohub,2013-09-23 01:28:00,
2013-09-22 20:33:00,66.9,53.2,29.73,ESE,120,1.0,6.0,60,0.00,,,0.00,meteohub,2013-09-23 01:33:00,
2013-09-22 20:38:00,66.9,53.2,29.73,SE,146,3.0,5.0,61,0.00,,,0.00,meteohub,2013-09-23 01:38:00,
2013-09-22 20:43:00,66.9,53.2,29.73,ESE,113,0.0,6.0,61,0.00,,,0.00,meteohub,2013-09-23 01:43:00,
2013-09-22 20:48:00,66.9,53.2,29.73,ESE,102,0.0,7.0,62,0.00,,,0.00,meteohub,2013-09-23 01:48:00,
2013-09-22 20:54:00,66.9,53.2,29.73,ESE,115,3.0,9.0,62,0.00,,,0.00,meteohub,2013-09-23 01:54:00,
2013-09-22 20:59:00,66.9,53.2,29.73,SE,142,0.0,9.0,62,0.00,,,0.00,meteohub,2013-09-23 01:59:00,
2013-09-22 21:04:00,66.9,53.2,29.73,SSE,151,3.0,9.0,61,0.00,,,0.00,meteohub,2013-09-23 02:04:00,
2013-09-22 21:09:00,66.9,52.9,29.73,ESE,103,0.0,9.0,60,0.00,,,0.00,meteohub,2013-09-23 02:09:00,
2013-09-22 21:14:00,66.9,52.9,29.74,ESE,116,3.0,11.0,60,0.00,,,0.00,meteohub,2013-09-23 02:14:00,
2013-09-22 21:20:00,66.9,52.9,29.74,East,101,0.0,11.0,60,0.00,,,0.00,meteohub,2013-09-23 02:20:00,
2013-09-22 21:25:00,66.9,52.5,29.74,SE,132,7.0,11.0,59,0.00,,,0.00,meteohub,2013-09-23 02:25:00,
2013-09-22 21:30:00,66.9,52.9,29.74,SE,142,7.0,11.0,60,0.00,,,0.00,meteohub,2013-09-23 02:30:00,
2013-09-22 21:35:00,66.9,52.9,29.74,South,169,6.0,11.0,60,0.00,,,0.00,meteohub,2013-09-23 02:35:00,
2013-09-22 21:40:00,66.9,52.9,29.74,ESE,123,0.0,12.0,60,0.00,,,0.00,meteohub,2013-09-23 02:40:00,
2013-09-22 21:45:00,66.9,52.7,29.74,ESE,113,0.0,15.0,60,0.00,,,0.00,meteohub,2013-09-23 02:45:00,
2013-09-22 21:50:00,66.9,52.9,29.74,SE,139,1.0,15.0,60,0.00,,,0.00,meteohub,2013-09-23 02:50:00,
2013-09-22 21:55:00,66.9,52.7,29.74,SE,131,0.0,11.0,61,0.00,,,0.00,meteohub,2013-09-23 02:55:00,
2013-09-22 22:01:00,66.9,52.5,29.74,SE,142,5.0,11.0,61,0.00,,,0.00,meteohub,2013-09-23 03:01:00,
2013-09-22 22:06:00,66.0,52.3,29.75,SSE,150,0.0,11.0,61,0.00,,,0.00,meteohub,2013-09-23 03:06:00,
2013-09-22 22:11:00,66.0,52.3,29.75,SE,130,0.0,9.0,61,0.00,,,0.00,meteohub,2013-09-23 03:11:00,
2013-09-22 22:16:00,66.0,52.2,29.75,SE,138,1.0,9.0,61,0.00,,,0.00,meteohub,2013-09-23 03:16:00,
2013-09-22 22:21:00,66.0,52.5,29.74,SSE,162,0.0,9.0,61,0.00,,,0.00,meteohub,2013-09-23 03:21:00,
2013-09-22 22:26:00,66.0,52.5,29.75,SSE,154,0.0,11.0,61,0.00,,,0.00,meteohub,2013-09-23 03:26:00,
2013-09-22 22:31:00,66.0,52.2,29.75,SSE,162,6.0,11.0,61,0.00,,,0.00,meteohub,2013-09-23 03:31:00,
2013-09-22 22:36:00,66.0,52.2,29.75,South,169,0.0,11.0,62,0.00,,,0.00,meteohub,2013-09-23 03:36:00,
2013-09-22 22:41:00,66.0,52.0,29.75,SE,146,5.0,11.0,61,0.00,,,0.00,meteohub,2013-09-23 03:41:00,
2013-09-22 22:47:00,66.0,52.0,29.75,SE,145,5.0,13.0,61,0.00,,,0.00,meteohub,2013-09-23 03:47:00,
2013-09-22 22:52:00,66.0,51.8,29.75,ESE,120,0.0,13.0,61,0.00,,,0.00,meteohub,2013-09-23 03:52:00,
2013-09-22 22:57:00,66.0,51.8,29.75,SE,138,9.0,13.0,61,0.00,,,0.00,meteohub,2013-09-23 03:57:00,
2013-09-22 23:01:00,66.0,51.8,29.75,SSE,151,7.0,13.0,61,0.00,,,0.00,meteohub,2013-09-23 04:01:00,
2013-09-22 23:02:00,66.0,51.8,29.75,SSE,150,9.0,13.0,61,0.00,,,0.00,meteohub,2013-09-23 04:02:00,
2013-09-22 23:03:00,64.9,51.3,29.75,SSE,167,4.0,13.0,61,0.00,,,0.00,meteohub,2013-09-23 04:03:00,
2013-09-22 23:08:00,64.9,51.8,29.75,SSE,147,1.0,13.0,61,0.00,,,0.00,meteohub,2013-09-23 04:08:00,
2013-09-22 23:13:00,64.9,51.1,29.75,SE,126,2.0,12.0,61,0.00,,,0.00,meteohub,2013-09-23 04:13:00,
2013-09-22 23:18:00,64.9,51.6,29.75,SSE,159,3.0,13.0,61,0.00,,,0.00,meteohub,2013-09-23 04:18:00,
2013-09-22 23:23:00,64.9,50.9,29.75,SSE,148,0.0,13.0,60,0.00,,,0.00,meteohub,2013-09-23 04:23:00,
2013-09-22 23:28:00,64.9,50.9,29.75,ESE,107,5.0,13.0,60,0.00,,,0.00,meteohub,2013-09-23 04:28:00,
2013-09-22 23:33:00,64.9,50.9,29.75,SE,141,0.0,12.0,60,0.00,,,0.00,meteohub,2013-09-23 04:33:00,
2013-09-22 23:38:00,64.9,50.7,29.76,ESE,122,0.0,12.0,60,0.00,,,0.00,meteohub,2013-09-23 04:38:00,
2013-09-22 23:43:00,64.9,50.7,29.76,SE,144,0.0,12.0,60,0.00,,,0.00,meteohub,2013-09-23 04:43:00,
2013-09-22 23:49:00,64.9,50.9,29.76,SE,129,0.0,13.0,60,0.00,,,0.00,meteohub,2013-09-23 04:49:00,
2013-09-22 23:54:00,64.9,50.7,29.76,SSE,166,3.0,13.0,60,0.00,,,0.00,meteohub,2013-09-23 04:54:00,
2013-09-22 23:59:00,64.9,50.7,29.76,SSE,162,9.0,13.0,60,0.00,,,0.00,meteohub,2013-09-23 04:59:00,